Location: Boursonne
(49.2024°N, 3.0468°E)
Time: 21:32:24
(UTC+00:00)

Cosmos 1844 Rocket - Pass Details

Date: 03 March 2021
Orbit: 826 x 843 km, 71.0° (Epoch: 14 April)

Event Time Altitude Azimuth Distance (km) Brightness Sun altitude
Rises 18:20:36 0° 333° (NNW) 3,377 6.2 -8.4°
Reaches altitude 10° 18:23:06 10° 338° (NNW) 2,439 5.4 -8.8°
Maximum altitude 18:28:35 55° 56° (NE) 994 2.8 -9.7°
Drops below altitude 10° 18:34:02 10° 134° (SE) 2,426 4.7 -10.5°
Enters shadow 18:35:42 - 137° (SE) 3,053 5.2 -10.8°
